SAM1 UUWW-PANC

Flight info

Callsign SAM1
Flight time N/A
Altitude 31000
Route RILPO3Z RILPO T753 NRM DCT TUMOK/K0924F330 G7 LIRFA/K0915F350 G7 LURET R351 BEKMI T454 PEMID M180 NATUR/K0915F370 M180 FRENK/N0495F370 B244 OTZ/N0424F170 V498 GAL DCT ROHHN DCT TAGER TAGER9
Aircraft B742/H-SDFHIRWXY/L

Departure

Time 2026-04-27 02:56
Airport Vnukovo International Airport (UUWW)

Arrival

Time N/A
Airport Ted Stevens Anchorage International Airport (PANC)
Time Latitude Longitude Altitude Speed Heading
2026-04-27 02:08 55.59716 37.29674 701 ft 0 kts 338°
2026-04-27 02:34 55.59716 37.29675 701 ft 0 kts 338°
2026-04-27 02:41 55.59714 37.29676 701 ft 2 kts 339°
2026-04-27 02:42 55.59700 37.29685 701 ft 2 kts 340°
2026-04-27 02:42 55.59685 37.29695 701 ft 2 kts 338°
2026-04-27 02:42 55.59677 37.29701 701 ft 2 kts 337°
2026-04-27 02:42 55.59666 37.29717 701 ft 2 kts 301°
2026-04-27 02:43 55.59662 37.29742 701 ft 2 kts 265°
2026-04-27 02:43 55.59665 37.29757 701 ft 0 kts 249°
2026-04-27 02:48 55.59663 37.29750 701 ft 4 kts 249°
2026-04-27 02:48 55.59643 37.29621 701 ft 16 kts 265°
2026-04-27 02:48 55.59648 37.29499 701 ft 1 kts 282°
2026-04-27 02:49 55.59654 37.29453 701 ft 6 kts 285°
2026-04-27 02:49 55.59664 37.29359 701 ft 7 kts 276°
2026-04-27 02:49 55.59670 37.29272 701 ft 6 kts 276°
2026-04-27 02:49 55.59674 37.29205 701 ft 4 kts 276°
2026-04-27 02:50 55.59678 37.29160 701 ft 2 kts 278°
2026-04-27 02:50 55.59680 37.29139 701 ft 0 kts 283°
2026-04-27 02:53 55.59697 37.29091 701 ft 13 kts 311°
2026-04-27 02:53 55.59715 37.29062 701 ft 0 kts 323°
2026-04-27 02:54 55.59719 37.29055 701 ft 4 kts 322°
2026-04-27 02:54 55.59765 37.28990 701 ft 8 kts 310°
2026-04-27 02:55 55.59773 37.28896 701 ft 7 kts 255°
2026-04-27 02:55 55.59764 37.28847 701 ft 2 kts 251°
2026-04-27 02:55 55.59728 37.28658 701 ft 38 kts 252°
2026-04-27 02:55 55.59526 37.27741 702 ft 120 kts 249°
2026-04-27 02:56 55.59092 37.25999 787 ft 181 kts 249°
2026-04-27 02:56 55.58588 37.23957 1652 ft 177 kts 250°
2026-04-27 02:56 55.57987 37.22108 1696 ft 180 kts 241°
2026-04-27 02:56 55.57286 37.20137 1298 ft 197 kts 258°
2026-04-27 02:57 55.57015 37.17699 998 ft 212 kts 262°
2026-04-27 02:57 55.56786 37.15374 1665 ft 166 kts 263°
2026-04-27 02:57 55.56647 37.13307 1216 ft 164 kts 266°
2026-04-27 02:57 55.56522 37.11389 963 ft 162 kts 265°
2026-04-27 02:58 55.56398 37.09371 1607 ft 166 kts 266°
2026-04-27 02:58 55.56268 37.07547 2723 ft 158 kts 266°